This demonstration page uses our WeatherBlox Daily Observations layout. Learn more.

Left ArrowRight Arrow

39.51506, -84.39828

Hourly Observations for October 13, 2018

Temp ( °F °C ) Dew Point ( °F °C ) Humidity (%) Winds ( mph kmh ) Pressure ( in mb ) Visibility ( mi km ) Precip ( " mm )
12:15 am 00:15 Cloudy with Light Rain 40 4.7 38 3.3 91 91 WNW 7 11 29.94 1014 10 16.0934 0 0
12:35 am 00:35 Cloudy with Light Rain 40 4.6 38 3.2 91 91 WNW 9 15 29.94 1014 10 16.0934 0 0
12:55 am 00:55 Cloudy 40 4.5 38 3.1 91 91 W 3 6 29.94 1014 10 16.0934 0 0
1:15 am 01:15 Cloudy 40 4.5 37 2.9 89 89 W 6 9 29.94 1014 10 16.0934 0 0
1:35 am 01:35 Cloudy 40 4.5 37 2.9 89 89 W 7 11 29.97 1015 10 16.0934 0 0
1:55 am 01:55 Cloudy 40 4.6 37 3 89 89 WNW 6 9 29.97 1015 10 16.0934 0 0
2:15 am 02:15 Cloudy 40 4.7 37 3 89 89 W 7 11 29.97 1015 10 16.0934 0 0
2:35 am 02:35 Cloudy 41 4.8 38 3.1 89 89 WNW 8 13 29.97 1015 10 16.0934 0 0
2:55 am 02:55 Cloudy 41 4.9 38 3.1 88 88 W 7 11 29.97 1015 10 16.0934 0 0
3:15 am 03:15 Cloudy 41 4.9 37 2.7 86 86 W 6 9 29.97 1015 10 16.0934 0 0
3:35 am 03:35 Cloudy 41 4.8 37 2.9 88 88 WNW 5 7 29.97 1015 10 16.0934 0 0
3:55 am 03:55 Cloudy 41 4.9 37 2.9 87 87 NW 5 7 29.97 1015 10 16.0934 0 0
4:15 am 04:15 Cloudy 41 4.9 37 3 88 88 NNW 3 6 30 1016 10 16.0934 0 0
4:35 am 04:35 Cloudy 41 4.8 36 2.4 85 85 NW 7 11 30 1016 10 16.0934 0 0
4:55 am 04:55 Cloudy 41 4.8 36 2.3 84 84 NNW 6 9 30 1016 10 16.0934 0 0
5:15 am 05:15 Cloudy 41 4.9 36 2.3 83 83 WNW 6 9 30 1016 10 16.0934 0 0
5:35 am 05:35 Cloudy 41 4.8 36 2.4 85 85 WNW 6 9 30 1016 10 16.0934 0 0
5:55 am 05:55 Cloudy 40 4.7 35 1.9 82 82 WNW 7 11 30.03 1017 10 16.0934 0 0
6:15 am 06:15 Cloudy 40 4.7 36 2.1 83 83 WNW 3 6 30.03 1017 10 16.0934 0 0
6:35 am 06:35 Cloudy 40 4.7 36 2 83 83 W 7 11 30.03 1017 10 16.0934 0 0
6:55 am 06:55 Cloudy 40 4.7 36 2 83 83 W 7 11 30.06 1018 10 16.0934 0 0
7:15 am 07:15 Cloudy 40 4.6 36 2 83 83 W 5 7 30.06 1018 10 16.0934 0 0
7:35 am 07:35 Cloudy 40 4.6 36 2.1 84 84 WNW 3 6 30.06 1018 10 16.0934 0 0
7:55 am 07:55 Cloudy 40 4.7 35 1.7 81 81 NW 3 6 30.06 1018 10 16.0934 0 0
8:15 am 08:15 Cloudy 40 4.7 36 2.1 83 83 NW 5 7 30.06 1018 10 16.0934 0 0
8:35 am 08:35 Cloudy 40 4.5 35 1.6 82 82 W 6 9 30.09 1019 10 16.0934 0 0
8:55 am 08:55 Cloudy 40 4.7 36 2 83 83 W 5 7 30.09 1019 10 16.0934 0 0
9:15 am 09:15 Cloudy 40 4.7 34 1.1 78 78 Calm 30.12 1020 10 16.0934 0 0
9:35 am 09:35 Cloudy 41 4.8 34 0.9 76 76 Calm 30.12 1020 10 16.0934 0 0
9:55 am 09:55 Cloudy 41 4.8 34 1.3 78 78 NW 5 7 30.12 1020 10 16.0934 0 0
10:15 am 10:15 Cloudy 41 4.9 34 1.1 77 77 W 3 6 30.12 1020 10 16.0934 0 0
10:35 am 10:35 Cloudy 41 5.2 34 1.2 76 76 Calm 30.12 1020 10 16.0934 0 0
10:55 am 10:55 Cloudy 42 5.8 35 1.7 75 75 SW 3 6 30.12 1020 10 16.0934 0 0
11:15 am 11:15 Cloudy 42 5.8 35 1.4 74 74 S 3 6 30.12 1020 10 16.0934 0 0
11:35 am 11:35 Cloudy 44 6.4 35 1.8 73 73 S 5 7 30.12 1020 10 16.0934 0 0
11:55 am 11:55 Cloudy 44 6.5 35 1.8 72 72 SSW 6 9 30.15 1021 10 16.0934 0 0
12:15 pm 12:15 Cloudy 44 6.7 36 2 72 72 S 7 11 30.15 1021 10 16.0934 0 0
12:35 pm 12:35 Cloudy 44 6.5 35 1.4 70 70 SSW 6 9 30.15 1021 10 16.0934 0 0
12:55 pm 12:55 Cloudy 44 6.9 35 1.8 70 70 S 6 9 30.12 1020 10 16.0934 0 0
1:15 pm 13:15 Cloudy 44 6.8 35 1.6 70 70 SW 7 11 30.12 1020 10 16.0934 0 0
1:35 pm 13:35 Partly Cloudy 45 7 35 1.6 69 69 Calm 30.12 1020 10 16.0934 0 0
1:55 pm 13:55 Partly Cloudy 47 8.1 36 2.4 68 68 SSW 7 11 30.12 1020 10 16.0934 0 0
2:15 pm 14:15 Sunny 47 8.1 35 1.8 65 65 SSW 6 9 30.09 1019 10 16.0934 0 0
2:35 pm 14:35 Partly Cloudy 48 8.9 36 2.4 64 64 S 8 13 30.09 1019 10 16.0934 0 0
2:55 pm 14:55 Partly Cloudy 48 9 36 2.2 63 63 SSW 7 11 30.09 1019 10 16.0934 0 0
3:15 pm 15:15 Sunny 49 9.4 36 2.1 61 61 WSW 5 7 30.09 1019 10 16.0934 0 0
3:35 pm 15:35 Sunny 49 9.5 35 1.8 59 59 Calm 30.09 1019 10 16.0934 0 0
3:55 pm 15:55 Sunny 50 9.8 35 1.8 58 58 S 3 6 30.09 1019 10 16.0934 0 0
4:15 pm 16:15 Sunny 50 10.1 36 2.2 58 58 SW 7 11 30.09 1019 10 16.0934 0 0
4:35 pm 16:35 Sunny 50 10.1 35 1.5 55 55 WSW 7 11 30.09 1019 10 16.0934 0 0
4:55 pm 16:55 Sunny 51 10.4 35 1.9 56 56 SSW 5 7 30.06 1018 10 16.0934 0 0
5:15 pm 17:15 Sunny 51 10.3 35 1.7 56 56 SSW 7 11 30.06 1018 10 16.0934 0 0
5:35 pm 17:35 Sunny 50 10 35 1.7 57 57 SSW 6 9 30.06 1018 10 16.0934 0 0
5:55 pm 17:55 Sunny 49 9.6 35 1.5 57 57 S 6 9 30.06 1018 10 16.0934 0 0
6:15 pm 18:15 Sunny 49 9.4 35 1.7 59 59 S 7 11 30.06 1018 10 16.0934 0 0
6:35 pm 18:35 Sunny 48 9.1 35 1.7 60 60 SSW 5 7 30.06 1018 10 16.0934 0 0
6:55 pm 18:55 Sunny 47 8.5 36 2.1 64 64 S 3 6 30.06 1018 10 16.0934 0 0
7:15 pm 19:15 Clear 47 8.2 36 2.2 66 66 S 3 6 30.09 1019 10 16.0934 0 0
7:35 pm 19:35 Clear 46 7.7 37 2.7 71 71 Calm 30.09 1019 10 16.0934 0 0
7:55 pm 19:55 Clear 44 6.8 40 4.4 85 85 Calm 30.09 1019 10 16.0934 0 0
8:15 pm 20:15 Clear 45 7 39 3.8 80 80 S 3 6 30.09 1019 10 16.0934 0 0
8:35 pm 20:35 Clear 46 8 38 3.4 73 73 Calm 30.12 1020 10 16.0934 0 0
8:55 pm 20:55 Clear 44 6.8 40 4.4 85 85 Calm 30.12 1020 10 16.0934 0 0
9:15 pm 21:15 Clear 44 6.6 41 4.8 88 88 Calm 30.09 1019 10 16.0934 0 0
9:35 pm 21:35 Clear 45 7.2 41 4.8 85 85 Calm 30.12 1020 10 16.0934 0 0
9:55 pm 21:55 Clear 45 7.4 40 4.6 83 83 S 3 6 30.12 1020 10 16.0934 0 0
10:15 pm 22:15 Clear 46 8 39 4 76 76 SSE 6 9 30.12 1020 10 16.0934 0 0
10:35 pm 22:35 Clear 46 8 39 4.1 77 77 SSE 5 7 30.12 1020 10 16.0934 0 0
10:55 pm 22:55 Clear 46 7.8 39 4.1 78 78 Calm 30.12 1020 10 16.0934 0 0
11:15 pm 23:15 Clear 46 7.7 39 4.1 78 78 ESE 3 6 30.09 1019 10 16.0934 0 0
11:35 pm 23:35 Clear 46 7.5 40 4.2 80 80 SSE 3 6 30.12 1020 10 16.0934 0 0
11:55 pm 23:55 Clear 46 7.7 39 4 78 78 S 5 7 30.12 1020 10 16.0934 0 0

Powered by AerisWeather